Regional Weather Roundup
Issued by NWS

Home | Current Version | Previous Version | Graphics & Text | Print | Product List | Glossary On
Versions: 1 2 3 4 5 6 7 8 9 10 11 12 13 14 15 16 17 18 19 20 21 22 23 24 25 26 27 28 29 30 31 32 33 34 35 36 37 38 39 40 41 42 43 44 45 46 47 48 49 50
000
ASUS43 KFSD 280010
RWRSD

WEATHER ROUNDUP FOR SOUTH DAKOTA
NATIONAL WEATHER SERVICE SIOUX FALLS SD
700 PM CDT WED APR 27 2016

NOTE: "FAIR" INDICATES FEW OR NO CLOUDS BELOW 12,000 FEET WITH NO
SIGNIFICANT WEATHER AND/OR OBSTRUCTIONS TO VISIBILITY.


SDZ001>005-009-010-012>017-280100-
NORTHWEST AND NORTH CENTRAL SOUTH DAKOTA

CITY           SKY/WX    TMP DP  RH WIND       PRES   REMARKS
BUFFALO          N/A     33  32  96 N10       29.87R WCI  25
FAITH            N/A     32  30  92 NE13      29.88R WCI  22
MOBRIDGE       LGT SNOW  35  33  92 NE13      29.88S FOG     WCI  26
$$

SDZ012>016-024>037-041>051-057-063-072>074-280100-
SOUTHWEST AND SOUTH CENTRAL SOUTH DAKOTA

CITY           SKY/WX    TMP DP  RH WIND       PRES   REMARKS
RAPID CTY ARPT LGT SNOW  33  32  96 N21       29.86R FOG     WCI  21
PIERRE         CLOUDY    38  35  89 NE18G25   29.79R
CUSTER         LGT SNOW  31  27  85 N12G21    29.78R FOG     WCI  22
ELLSWORTH AFB  LGT SNOW  33  33 100 N17       29.85  VSB 1   WCI  22
PHILIP         LGT RAIN  34  33  96 N17       29.81S WCI  23
PINE RIDGE     LGT SNOW  33  30  88 N12G21    29.80S FOG     WCI  24
WINNER         LGT RAIN  40  37  89 NE10      29.74R FOG
$$

SDZ004>011-016>023-039-040-280100-
NORTHEAST SOUTH DAKOTA

CITY           SKY/WX    TMP DP  RH WIND       PRES   REMARKS
ABERDEEN       LGT RAIN  40  36  86 E13       29.88R
WATERTOWN      CLOUDY    40  35  83 E17G25    29.79R
BROOKINGS      LGT RAIN  40  36  86 E24G32    29.75R
SISSETON         N/A     42  36  79 SE16      29.86R
$$

SDZ017-020-022-023-036>040-048>070-280100-
SOUTHEAST SOUTH DAKOTA

CITY           SKY/WX    TMP DP  RH WIND       PRES   REMARKS
SIOUX FALLS    CLOUDY    42  39  89 E16G32    29.68S
HURON          RAIN      40  37  89 E13G23    29.77R FOG
CHAMBERLAIN    LGT RAIN  41  41  99 NE9G17    29.74R
MITCHELL       LGT RAIN  42  40  92 NE13      29.72S FOG
YANKTON        CLOUDY    46  43  87 E20G29    29.62R
$$

ABBREVIATIONS USED IN REMARKS
   TC - TEMPERATURE IN CELSIUS
  WCI - WIND CHILL INDEX
   HX - HEAT INDEX
  VSB - VISIBILITY





USA.gov is the U.S. government's official web portal to all federal, state and local government web resources and services.